GEFSSE_prec_meanprecacc_246.txt.gz
Total_Precipitation_Accumulation
1.76 1.81 1.94 1.42 1.19 1.08 1.02 1.03 1.02 0.91 0.86 0.89 0.89 0.91 0.93 0.99 1.05 1.14 1.19 1.18 1.25 1.38 1.51 1.69 1.83 1.89 1.84 1.64 1.45 1.28 1.12 1.10 1.19 1.29 1.35 1.34 1.37 1.66 1.99 2.14 2.01 1.36 1.47
1.39 1.48 1.61 1.27 1.06 0.94 0.89 0.98 0.92 0.82 0.76 0.80 0.81 0.84 0.90 0.96 1.00 1.09 1.15 1.25 1.33 1.42 1.53 1.65 1.69 1.69 1.53 1.30 1.11 1.02 1.02 1.08 1.28 1.44 1.37 1.22 1.37 1.60 1.90 1.97 1.98 1.33 1.40
0.90 1.10 1.15 1.14 0.98 0.89 0.89 0.92 0.88 0.80 0.75 0.81 0.84 0.90 1.00 1.08 1.04 1.02 1.13 1.26 1.35 1.41 1.47 1.57 1.56 1.47 1.23 1.04 0.94 0.91 1.00 1.20 1.44 1.67 1.78 1.13 0.97 1.51 1.89 1.85 1.56 1.23 1.26
0.68 0.82 0.85 0.91 0.85 0.73 0.65 0.69 0.79 0.77 0.77 0.83 0.92 1.05 1.17 1.28 1.24 1.25 1.27 1.31 1.39 1.40 1.43 1.48 1.42 1.24 1.04 0.91 0.85 0.90 0.99 1.28 1.57 1.99 1.92 1.13 0.74 1.15 1.57 1.43 1.27 1.23 1.22
0.60 0.69 0.78 0.72 0.64 0.64 0.59 0.59 0.72 0.82 0.86 0.85 0.93 1.05 1.20 1.42 1.44 1.48 1.51 1.58 1.55 1.44 1.36 1.33 1.28 1.08 0.90 0.79 0.78 0.88 0.99 1.26 1.62 1.77 1.43 1.29 1.17 1.14 1.19 1.21 1.23 1.24 1.24
0.50 0.56 0.57 0.67 0.66 0.63 0.62 0.62 0.67 0.77 0.85 0.87 0.90 1.05 1.20 1.45 1.62 1.67 1.62 1.64 1.57 1.38 1.28 1.20 1.11 0.91 0.79 0.75 0.83 0.89 1.01 1.34 1.43 1.06 1.02 1.06 1.10 1.22 1.13 1.32 1.38 1.34 1.30
0.47 0.54 0.55 0.62 0.64 0.64 0.62 0.68 0.72 0.71 0.79 0.79 0.76 0.87 1.07 1.30 1.60 1.63 1.57 1.51 1.37 1.28 1.24 1.16 1.01 0.83 0.79 0.80 0.87 0.89 1.04 1.37 1.17 0.80 0.99 1.16 1.01 1.00 1.12 1.37 1.52 1.49 1.32
0.58 0.49 0.56 0.66 0.66 0.63 0.59 0.64 0.66 0.68 0.70 0.73 0.72 0.79 0.97 1.16 1.32 1.38 1.35 1.28 1.19 1.19 1.16 1.10 0.97 0.84 0.76 0.73 0.76 0.82 1.02 1.10 0.86 0.78 0.81 0.83 0.77 0.90 1.14 1.33 1.49 1.53 1.35
0.78 0.62 0.59 0.58 0.54 0.56 0.60 0.62 0.66 0.69 0.76 0.80 0.80 0.88 1.05 1.08 1.14 1.15 1.18 1.17 1.16 1.14 1.13 1.02 0.87 0.74 0.67 0.63 0.66 0.76 0.97 1.12 0.96 0.96 0.73 0.74 0.91 1.07 1.27 1.43 1.45 1.40 1.30
1.07 0.86 0.71 0.70 0.69 0.59 0.58 0.68 0.74 0.81 0.89 0.96 0.98 1.05 1.19 1.18 1.15 1.20 1.16 1.16 1.16 1.20 1.16 1.01 0.79 0.65 0.62 0.63 0.69 0.82 0.99 0.91 0.82 0.85 0.79 0.71 1.00 1.18 1.34 1.42 1.42 1.32 1.29
1.51 1.13 0.93 0.85 0.87 0.83 0.70 0.72 0.87 0.94 1.04 1.10 1.25 1.37 1.54 1.56 1.40 1.50 1.36 1.41 1.36 1.38 1.30 1.16 0.99 0.86 0.78 0.74 0.93 1.12 0.96 0.87 1.01 1.05 0.95 0.94 1.11 1.30 1.45 1.46 1.48 1.44 1.40
1.68 1.26 1.13 0.96 0.86 0.87 0.99 1.25 1.34 1.14 1.27 1.51 1.73 1.86 2.10 2.06 1.95 1.60 1.69 1.81 1.91 2.02 1.87 1.71 1.61 1.27 1.08 1.02 1.50 1.71 1.02 0.90 0.99 1.13 1.06 1.07 1.28 1.55 1.70 1.61 1.53 1.49 1.39
1.59 1.35 1.27 1.24 1.22 1.11 1.26 1.45 1.54 1.52 1.68 1.81 1.89 2.00 2.15 1.88 1.78 1.77 1.91 2.14 2.26 2.32 2.18 2.23 2.21 1.88 1.81 1.81 2.01 1.90 1.35 1.25 1.18 1.14 1.20 1.29 1.42 1.70 1.98 1.82 1.63 1.54 1.37
2.06 1.82 1.64 1.65 1.56 1.48 1.45 1.59 1.65 1.70 1.72 1.85 1.98 1.92 2.03 2.16 2.13 2.18 2.37 2.36 2.44 2.56 2.83 2.50 2.63 2.48 2.31 2.18 2.15 2.01 1.69 1.67 1.66 1.65 1.81 1.60 1.54 1.84 2.17 2.07 1.85 1.68 1.53
2.61 2.56 2.29 2.02 1.86 1.81 1.93 1.94 1.84 1.91 1.96 2.07 2.22 2.15 2.15 2.39 2.47 2.52 2.50 2.58 2.37 2.47 2.77 2.85 2.68 2.87 2.95 2.74 2.49 2.23 2.13 1.96 1.85 1.88 1.98 1.89 1.84 1.91 2.17 2.33 2.17 2.00 1.82
2.80 2.88 2.67 2.48 2.34 2.29 2.43 2.51 2.40 2.20 2.37 2.45 2.44 2.28 2.33 2.57 2.84 2.95 2.81 2.86 2.65 2.54 2.70 2.81 2.82 3.38 3.31 3.16 2.64 2.34 2.28 2.21 2.04 2.08 2.15 2.21 1.94 1.80 1.94 2.34 2.50 2.43 2.25
3.18 3.09 3.02 2.98 2.89 2.92 2.89 2.86 2.66 2.58 2.48 2.56 2.63 2.65 2.61 2.65 2.96 3.07 3.11 3.05 2.87 2.72 2.86 2.90 3.11 3.36 3.10 2.96 2.68 2.50 2.38 2.26 2.05 2.06 2.30 2.52 2.23 1.98 1.85 2.03 2.36 2.53 2.55
3.55 3.52 3.50 3.33 3.36 3.38 3.35 3.25 3.08 2.93 2.75 2.59 2.58 2.72 2.74 2.82 3.03 3.20 3.06 2.94 3.06 3.07 3.18 3.36 3.43 3.41 3.28 3.15 2.95 2.60 2.39 2.35 1.89 1.86 2.00 2.16 2.29 2.03 2.10 2.24 2.42 2.47 2.68
4.06 4.21 4.22 4.11 3.91 3.68 3.63 3.62 3.65 3.59 3.33 3.01 2.90 2.89 2.89 2.78 2.89 3.13 3.09 3.14 3.19 3.24 3.28 3.00 3.43 3.41 3.41 3.26 2.70 2.51 2.22 2.13 1.99 1.71 1.73 1.71 1.86 1.91 1.94 2.08 2.26 2.26 2.63
4.36 4.85 4.80 4.60 4.48 4.40 4.30 4.07 4.07 3.83 3.51 3.38 3.32 3.39 3.20 3.06 3.01 3.22 3.19 3.26 3.29 3.38 3.40 3.35 3.56 3.49 3.32 3.22 2.50 2.32 2.11 1.75 1.75 1.72 1.55 1.54 1.62 1.56 1.67 1.95 2.24 1.91 2.29
4.64 5.09 5.31 5.31 5.11 4.81 4.43 4.04 3.87 3.78 3.73 3.56 3.43 3.30 3.16 3.07 3.15 3.45 3.33 3.57 3.50 3.28 3.23 3.33 3.54 3.39 3.13 3.16 3.07 2.54 1.97 1.64 1.66 1.53 1.61 1.75 1.63 1.63 1.84 2.17 2.34 2.22 2.00
4.23 4.66 4.80 4.57 4.44 4.27 4.02 3.92 3.91 4.11 3.80 3.53 3.42 3.28 3.00 2.98 3.08 3.09 3.36 3.25 3.25 3.33 3.24 3.25 3.47 3.27 2.85 2.96 3.17 3.07 2.38 2.11 1.69 1.26 1.52 1.65 1.72 1.92 2.00 2.04 2.38 2.56 2.34
3.18 3.43 3.60 3.77 3.69 3.58 3.56 3.54 3.59 3.80 3.56 3.37 3.25 3.17 2.82 2.68 2.69 2.80 2.88 2.94 3.24 3.18 3.21 3.28 3.22 3.11 2.81 2.74 2.88 3.09 2.64 2.24 1.80 1.31 1.24 1.51 1.87 2.04 1.96 2.05 2.16 2.39 2.52
2.79 2.98 3.04 3.08 3.20 3.23 3.31 3.22 3.06 2.96 2.87 2.82 2.88 2.84 2.80 2.68 2.59 2.62 2.65 2.69 2.76 2.69 2.83 2.58 2.69 2.91 3.03 2.76 2.82 2.73 2.60 2.46 2.33 1.87 1.52 1.50 1.77 1.93 2.04 1.95 1.99 2.17 2.49
2.19 2.42 2.58 2.70 2.80 2.92 2.98 2.90 2.86 2.64 2.63 2.68 2.69 2.74 2.70 2.67 2.65 2.62 2.60 2.56 2.43 2.32 2.45 2.46 2.64 2.65 2.67 2.62 2.66 2.71 2.75 2.69 2.50 2.37 2.10 1.99 1.92 1.67 1.73 1.81 1.88 2.00 2.25
1.92 2.10 2.25 2.40 2.46 2.57 2.62 2.65 2.62 2.57 2.57 2.57 2.54 2.54 2.53 2.55 2.46 2.42 2.39 2.38 2.25 2.24 2.32 2.40 2.48 2.42 2.46 2.58 2.58 2.59 2.73 2.70 2.70 2.72 2.34 2.18 2.02 1.58 1.54 1.53 1.67 1.81 2.13

GEFSSE_prec_meanprecacc_252.txt.gz
Total_Precipitation_Accumulation
1.88 1.93 2.05 1.49 1.24 1.13 1.06 1.06 1.06 0.94 0.90 0.97 0.99 1.02 1.04 1.10 1.14 1.24 1.29 1.28 1.37 1.49 1.62 1.81 1.97 2.04 1.99 1.78 1.60 1.44 1.26 1.21 1.32 1.41 1.47 1.48 1.50 1.78 2.10 2.22 2.08 1.41 1.53
1.50 1.60 1.71 1.35 1.14 1.00 0.94 1.02 0.96 0.86 0.80 0.86 0.88 0.90 0.97 1.04 1.07 1.16 1.24 1.35 1.45 1.53 1.63 1.76 1.84 1.84 1.66 1.41 1.23 1.14 1.12 1.18 1.41 1.59 1.52 1.36 1.50 1.72 2.00 2.05 2.03 1.38 1.46
0.98 1.19 1.22 1.21 1.05 0.94 0.93 0.95 0.91 0.84 0.78 0.85 0.90 0.96 1.05 1.13 1.09 1.07 1.19 1.35 1.45 1.49 1.55 1.66 1.67 1.59 1.36 1.15 1.05 1.00 1.08 1.29 1.57 1.83 1.93 1.24 1.06 1.60 1.96 1.92 1.61 1.28 1.31
0.73 0.88 0.90 0.97 0.90 0.77 0.67 0.71 0.81 0.80 0.80 0.87 0.98 1.10 1.22 1.34 1.31 1.31 1.34 1.39 1.46 1.47 1.49 1.54 1.50 1.32 1.16 1.03 0.95 0.96 1.06 1.36 1.66 2.10 2.02 1.21 0.81 1.23 1.65 1.49 1.31 1.27 1.26
0.64 0.72 0.82 0.75 0.67 0.66 0.60 0.60 0.74 0.84 0.88 0.87 0.97 1.10 1.26 1.50 1.51 1.55 1.59 1.65 1.62 1.50 1.42 1.39 1.35 1.14 1.00 0.90 0.87 0.95 1.07 1.37 1.74 1.87 1.53 1.34 1.20 1.21 1.26 1.26 1.27 1.29 1.28
0.53 0.59 0.61 0.70 0.67 0.63 0.63 0.63 0.69 0.79 0.86 0.89 0.93 1.08 1.25 1.52 1.68 1.75 1.71 1.73 1.65 1.43 1.34 1.27 1.19 0.99 0.87 0.83 0.90 0.97 1.12 1.49 1.54 1.13 1.08 1.10 1.12 1.28 1.20 1.37 1.41 1.39 1.34
0.49 0.57 0.58 0.65 0.66 0.65 0.63 0.69 0.73 0.73 0.81 0.80 0.79 0.91 1.13 1.37 1.67 1.70 1.64 1.57 1.43 1.34 1.30 1.23 1.09 0.89 0.85 0.87 0.96 0.99 1.17 1.49 1.23 0.85 1.05 1.22 1.05 1.06 1.17 1.43 1.57 1.53 1.36
0.59 0.51 0.58 0.68 0.68 0.64 0.60 0.65 0.67 0.69 0.71 0.75 0.76 0.83 1.03 1.21 1.38 1.44 1.40 1.32 1.22 1.24 1.22 1.18 1.05 0.90 0.84 0.87 0.92 0.96 1.15 1.19 0.92 0.83 0.88 0.91 0.84 0.95 1.18 1.38 1.53 1.57 1.38
0.81 0.64 0.61 0.59 0.56 0.57 0.62 0.63 0.66 0.70 0.77 0.82 0.84 0.93 1.11 1.14 1.20 1.19 1.22 1.20 1.20 1.18 1.18 1.08 0.92 0.80 0.74 0.77 0.83 0.90 1.09 1.20 1.02 1.03 0.80 0.79 0.96 1.12 1.31 1.47 1.48 1.42 1.34
1.10 0.90 0.75 0.71 0.71 0.61 0.60 0.70 0.75 0.82 0.91 0.98 1.00 1.10 1.25 1.25 1.21 1.25 1.21 1.20 1.20 1.24 1.21 1.05 0.83 0.69 0.67 0.72 0.81 0.93 1.10 0.98 0.88 0.91 0.84 0.75 1.04 1.23 1.38 1.45 1.45 1.35 1.33
1.54 1.17 0.98 0.89 0.91 0.86 0.73 0.75 0.91 0.97 1.07 1.14 1.30 1.43 1.60 1.60 1.44 1.53 1.39 1.44 1.39 1.41 1.34 1.20 1.03 0.90 0.81 0.81 1.04 1.24 1.05 0.93 1.08 1.13 1.01 0.99 1.16 1.35 1.50 1.49 1.51 1.47 1.42
1.73 1.31 1.18 1.03 0.92 0.92 1.02 1.29 1.37 1.18 1.32 1.56 1.79 1.93 2.16 2.10 1.99 1.64 1.74 1.86 1.95 2.05 1.91 1.75 1.66 1.33 1.12 1.06 1.58 1.81 1.11 0.97 1.06 1.22 1.15 1.14 1.36 1.61 1.75 1.65 1.56 1.52 1.42
1.62 1.40 1.32 1.31 1.29 1.16 1.30 1.51 1.62 1.61 1.76 1.90 1.97 2.08 2.24 1.96 1.86 1.87 1.99 2.21 2.34 2.39 2.23 2.27 2.26 1.93 1.86 1.84 2.05 1.97 1.42 1.34 1.27 1.23 1.28 1.38 1.53 1.80 2.07 1.89 1.69 1.58 1.41
2.08 1.86 1.70 1.70 1.61 1.53 1.50 1.66 1.77 1.78 1.83 1.96 2.06 1.99 2.09 2.22 2.25 2.32 2.52 2.45 2.55 2.67 2.93 2.57 2.68 2.53 2.35 2.25 2.23 2.09 1.78 1.76 1.75 1.73 1.87 1.67 1.62 1.93 2.27 2.17 1.96 1.77 1.61
2.62 2.60 2.34 2.05 1.89 1.85 1.97 1.98 1.90 1.97 2.06 2.14 2.28 2.20 2.19 2.43 2.54 2.59 2.58 2.65 2.46 2.56 2.88 2.96 2.75 2.94 2.99 2.80 2.58 2.32 2.23 2.06 1.94 1.96 2.04 1.95 1.91 2.00 2.28 2.46 2.30 2.11 1.91
2.81 2.90 2.70 2.51 2.37 2.33 2.47 2.56 2.44 2.24 2.42 2.50 2.48 2.31 2.36 2.60 2.88 3.00 2.86 2.92 2.73 2.60 2.77 2.91 2.91 3.50 3.36 3.21 2.72 2.41 2.37 2.31 2.15 2.19 2.24 2.28 2.02 1.88 2.04 2.47 2.63 2.53 2.34
3.19 3.10 3.05 3.01 2.91 2.94 2.93 2.89 2.69 2.62 2.52 2.60 2.66 2.67 2.64 2.68 2.99 3.11 3.16 3.11 2.93 2.78 2.94 2.96 3.16 3.43 3.18 3.03 2.74 2.55 2.43 2.36 2.20 2.20 2.41 2.61 2.32 2.11 2.02 2.18 2.48 2.63 2.65
3.56 3.55 3.53 3.37 3.38 3.40 3.38 3.28 3.10 2.97 2.80 2.63 2.60 2.73 2.76 2.84 3.06 3.24 3.10 2.99 3.11 3.12 3.24 3.42 3.48 3.47 3.36 3.22 3.01 2.66 2.46 2.48 2.03 1.98 2.10 2.25 2.37 2.12 2.24 2.43 2.61 2.59 2.78
4.08 4.25 4.26 4.18 3.95 3.71 3.66 3.65 3.68 3.64 3.39 3.07 2.93 2.91 2.91 2.81 2.93 3.17 3.12 3.18 3.24 3.29 3.32 3.06 3.49 3.46 3.48 3.33 2.76 2.57 2.29 2.27 2.12 1.85 1.88 1.84 1.96 2.00 2.04 2.23 2.44 2.41 2.74
4.37 4.88 4.85 4.66 4.53 4.44 4.34 4.10 4.10 3.86 3.59 3.47 3.36 3.42 3.24 3.09 3.05 3.27 3.23 3.30 3.33 3.42 3.43 3.38 3.60 3.54 3.37 3.27 2.57 2.41 2.18 1.85 1.86 1.84 1.67 1.66 1.74 1.67 1.79 2.09 2.39 2.09 2.43
4.65 5.12 5.35 5.35 5.15 4.85 4.46 4.07 3.90 3.82 3.79 3.65 3.50 3.34 3.20 3.12 3.19 3.51 3.39 3.63 3.54 3.32 3.26 3.35 3.57 3.43 3.17 3.21 3.15 2.63 2.05 1.71 1.74 1.60 1.66 1.82 1.72 1.72 1.93 2.27 2.42 2.29 2.05
4.23 4.67 4.83 4.59 4.46 4.30 4.05 3.95 3.94 4.15 3.87 3.63 3.51 3.36 3.08 3.04 3.14 3.14 3.42 3.32 3.31 3.38 3.27 3.28 3.51 3.31 2.89 3.02 3.25 3.15 2.45 2.19 1.75 1.32 1.58 1.72 1.79 1.99 2.07 2.09 2.43 2.62 2.38
3.18 3.44 3.62 3.78 3.72 3.60 3.59 3.57 3.61 3.83 3.62 3.45 3.37 3.29 2.92 2.77 2.75 2.86 2.94 3.01 3.29 3.22 3.25 3.32 3.26 3.16 2.86 2.79 2.93 3.16 2.71 2.30 1.85 1.37 1.33 1.60 1.96 2.12 2.06 2.16 2.23 2.45 2.57
2.79 2.98 3.04 3.08 3.22 3.26 3.34 3.24 3.09 2.99 2.92 2.88 2.99 2.96 2.90 2.76 2.65 2.67 2.71 2.75 2.81 2.73 2.87 2.62 2.74 2.96 3.08 2.82 2.87 2.79 2.67 2.52 2.37 1.91 1.58 1.59 1.85 2.00 2.14 2.09 2.16 2.29 2.59
2.19 2.42 2.58 2.70 2.81 2.93 3.00 2.93 2.90 2.69 2.69 2.75 2.80 2.82 2.78 2.73 2.70 2.66 2.65 2.63 2.51 2.37 2.49 2.50 2.69 2.70 2.72 2.69 2.75 2.78 2.81 2.76 2.55 2.42 2.16 2.05 1.98 1.74 1.80 1.92 2.07 2.19 2.41
1.93 2.11 2.25 2.40 2.46 2.58 2.63 2.68 2.65 2.60 2.62 2.62 2.63 2.62 2.60 2.60 2.51 2.45 2.43 2.44 2.30 2.28 2.35 2.44 2.53 2.47 2.51 2.64 2.66 2.67 2.79 2.76 2.76 2.78 2.38 2.21 2.06 1.64 1.62 1.62 1.80 1.96 2.27

GEFSSE_prec_meanprecacc_258.txt.gz
Total_Precipitation_Accumulation
1.99 2.10 2.21 1.61 1.33 1.20 1.13 1.13 1.12 1.01 1.00 1.07 1.07 1.09 1.11 1.17 1.20 1.31 1.39 1.42 1.56 1.71 1.81 1.99 2.15 2.22 2.19 2.01 1.80 1.60 1.42 1.41 1.51 1.59 1.65 1.65 1.66 1.91 2.20 2.32 2.16 1.48 1.58
1.59 1.74 1.86 1.46 1.21 1.06 1.00 1.08 1.06 0.97 0.94 0.98 0.96 0.98 1.04 1.13 1.15 1.24 1.33 1.48 1.62 1.70 1.78 1.94 2.02 2.02 1.85 1.58 1.39 1.27 1.23 1.33 1.55 1.72 1.70 1.58 1.72 1.89 2.15 2.17 2.12 1.45 1.53
1.06 1.30 1.30 1.28 1.12 1.00 0.97 0.99 0.97 0.92 0.88 0.95 1.00 1.05 1.12 1.22 1.19 1.16 1.29 1.46 1.58 1.62 1.67 1.78 1.83 1.76 1.55 1.29 1.17 1.10 1.16 1.38 1.66 1.95 2.09 1.44 1.33 1.81 2.12 2.04 1.69 1.35 1.39
0.78 0.93 0.94 1.02 0.96 0.82 0.71 0.75 0.87 0.84 0.87 0.96 1.08 1.20 1.30 1.44 1.44 1.41 1.44 1.48 1.56 1.55 1.56 1.64 1.61 1.47 1.33 1.19 1.07 1.05 1.13 1.44 1.75 2.21 2.11 1.34 1.01 1.44 1.80 1.60 1.41 1.34 1.33
0.68 0.75 0.86 0.80 0.71 0.69 0.63 0.63 0.77 0.88 0.93 0.93 1.04 1.18 1.35 1.61 1.65 1.67 1.70 1.74 1.69 1.57 1.49 1.47 1.43 1.25 1.12 1.03 0.99 1.05 1.16 1.45 1.81 1.93 1.59 1.43 1.32 1.38 1.42 1.37 1.37 1.37 1.35
0.57 0.61 0.64 0.72 0.69 0.65 0.65 0.65 0.71 0.82 0.90 0.94 1.00 1.16 1.36 1.64 1.80 1.88 1.82 1.80 1.71 1.50 1.40 1.33 1.26 1.08 0.97 0.93 1.00 1.07 1.20 1.57 1.59 1.16 1.13 1.14 1.17 1.37 1.31 1.48 1.53 1.47 1.41
0.52 0.59 0.61 0.67 0.68 0.66 0.64 0.71 0.75 0.75 0.86 0.88 0.88 1.02 1.26 1.48 1.77 1.80 1.73 1.65 1.51 1.41 1.36 1.29 1.16 0.99 0.95 0.95 1.04 1.07 1.25 1.55 1.26 0.88 1.08 1.25 1.09 1.12 1.27 1.53 1.68 1.62 1.43
0.61 0.53 0.62 0.70 0.70 0.66 0.61 0.67 0.70 0.71 0.75 0.83 0.87 0.96 1.14 1.31 1.46 1.50 1.46 1.38 1.30 1.32 1.31 1.26 1.14 1.03 0.95 0.96 1.00 1.05 1.24 1.25 0.95 0.86 0.90 0.94 0.89 1.03 1.26 1.45 1.60 1.64 1.44
0.84 0.68 0.65 0.61 0.57 0.59 0.63 0.65 0.68 0.72 0.80 0.87 0.92 1.02 1.19 1.22 1.28 1.25 1.28 1.26 1.26 1.26 1.27 1.16 1.01 0.91 0.85 0.89 0.95 1.05 1.22 1.29 1.07 1.06 0.83 0.83 1.03 1.19 1.39 1.54 1.53 1.47 1.39
1.12 0.94 0.79 0.74 0.73 0.63 0.61 0.73 0.78 0.85 0.95 1.04 1.08 1.18 1.34 1.34 1.30 1.32 1.27 1.26 1.27 1.32 1.28 1.13 0.91 0.80 0.80 0.87 0.92 1.03 1.20 1.06 0.93 0.94 0.88 0.82 1.14 1.31 1.46 1.52 1.51 1.41 1.39
1.56 1.20 1.02 0.91 0.93 0.88 0.75 0.78 0.94 1.02 1.12 1.20 1.36 1.51 1.69 1.68 1.50 1.59 1.48 1.53 1.47 1.48 1.42 1.28 1.12 1.02 0.96 0.94 1.15 1.35 1.13 0.98 1.12 1.15 1.04 1.03 1.20 1.42 1.59 1.59 1.59 1.54 1.48
1.75 1.33 1.21 1.05 0.94 0.93 1.04 1.31 1.39 1.20 1.34 1.59 1.83 1.97 2.21 2.15 2.02 1.69 1.82 1.95 2.01 2.12 1.99 1.84 1.77 1.47 1.23 1.13 1.67 1.92 1.19 1.04 1.12 1.25 1.20 1.20 1.42 1.69 1.84 1.75 1.64 1.58 1.48
1.64 1.42 1.34 1.34 1.32 1.19 1.32 1.52 1.63 1.62 1.79 1.93 2.00 2.11 2.28 1.99 1.90 1.91 2.05 2.28 2.40 2.44 2.28 2.32 2.32 1.99 1.90 1.88 2.10 2.06 1.50 1.38 1.32 1.27 1.34 1.45 1.60 1.89 2.20 2.03 1.81 1.68 1.52
2.10 1.88 1.72 1.73 1.66 1.56 1.52 1.68 1.79 1.80 1.86 2.00 2.10 2.03 2.13 2.25 2.30 2.38 2.58 2.51 2.58 2.70 2.96 2.61 2.72 2.56 2.39 2.29 2.29 2.16 1.83 1.80 1.78 1.76 1.92 1.74 1.69 2.01 2.41 2.34 2.12 1.91 1.74
2.65 2.63 2.36 2.08 1.92 1.88 2.00 2.01 1.93 2.00 2.09 2.17 2.32 2.25 2.22 2.46 2.57 2.62 2.62 2.69 2.49 2.58 2.92 3.01 2.79 2.98 3.05 2.85 2.63 2.39 2.30 2.11 1.98 2.01 2.08 2.02 1.98 2.09 2.40 2.60 2.47 2.30 2.07
2.85 2.93 2.72 2.53 2.38 2.35 2.50 2.58 2.47 2.28 2.46 2.53 2.50 2.34 2.39 2.63 2.90 3.03 2.89 2.94 2.75 2.63 2.80 2.94 2.95 3.54 3.42 3.27 2.77 2.48 2.43 2.36 2.19 2.23 2.28 2.35 2.11 1.97 2.15 2.61 2.78 2.67 2.49
3.21 3.12 3.07 3.03 2.93 2.96 2.95 2.91 2.72 2.65 2.55 2.63 2.69 2.70 2.69 2.71 3.02 3.14 3.20 3.14 2.95 2.81 2.97 2.99 3.20 3.46 3.23 3.09 2.79 2.59 2.49 2.43 2.24 2.23 2.45 2.66 2.38 2.18 2.14 2.34 2.66 2.83 2.88
3.58 3.56 3.54 3.39 3.41 3.43 3.41 3.30 3.12 2.98 2.82 2.67 2.64 2.77 2.80 2.89 3.10 3.27 3.13 3.02 3.13 3.15 3.27 3.45 3.52 3.52 3.41 3.27 3.04 2.69 2.50 2.53 2.08 2.02 2.14 2.30 2.44 2.20 2.35 2.58 2.78 2.80 3.00
4.10 4.26 4.28 4.19 3.98 3.76 3.70 3.68 3.69 3.65 3.41 3.10 2.96 2.94 2.96 2.85 2.98 3.22 3.17 3.21 3.25 3.30 3.34 3.08 3.53 3.50 3.53 3.37 2.80 2.61 2.32 2.30 2.18 1.92 1.95 1.90 2.03 2.07 2.11 2.29 2.54 2.58 2.94
4.39 4.90 4.86 4.68 4.56 4.47 4.37 4.13 4.13 3.89 3.61 3.49 3.39 3.45 3.30 3.15 3.11 3.33 3.27 3.33 3.35 3.43 3.44 3.40 3.64 3.57 3.40 3.31 2.62 2.44 2.22 1.88 1.89 1.88 1.72 1.72 1.81 1.72 1.85 2.13 2.43 2.14 2.51
4.67 5.14 5.37 5.37 5.18 4.89 4.49 4.10 3.93 3.84 3.82 3.68 3.53 3.36 3.25 3.17 3.25 3.56 3.43 3.67 3.58 3.35 3.28 3.37 3.60 3.46 3.19 3.23 3.18 2.67 2.09 1.74 1.77 1.63 1.70 1.88 1.77 1.77 1.98 2.31 2.44 2.31 2.08
4.26 4.70 4.86 4.62 4.51 4.34 4.08 3.98 3.96 4.17 3.90 3.66 3.55 3.39 3.13 3.08 3.19 3.21 3.49 3.38 3.37 3.43 3.32 3.32 3.53 3.34 2.92 3.04 3.27 3.19 2.49 2.23 1.79 1.35 1.62 1.77 1.83 2.03 2.12 2.13 2.45 2.64 2.41
3.20 3.49 3.65 3.82 3.77 3.65 3.63 3.60 3.63 3.87 3.68 3.52 3.43 3.34 2.98 2.82 2.80 2.91 2.99 3.07 3.37 3.30 3.31 3.37 3.31 3.20 2.89 2.83 2.96 3.19 2.74 2.33 1.88 1.40 1.36 1.63 1.98 2.15 2.11 2.22 2.29 2.50 2.60
2.82 3.02 3.09 3.13 3.27 3.31 3.37 3.28 3.11 3.04 2.99 2.96 3.05 3.01 2.95 2.81 2.70 2.71 2.74 2.79 2.86 2.79 2.93 2.69 2.81 3.01 3.11 2.85 2.91 2.82 2.70 2.54 2.39 1.93 1.61 1.62 1.89 2.03 2.18 2.15 2.23 2.35 2.64
2.22 2.46 2.62 2.75 2.85 2.98 3.03 2.96 2.94 2.74 2.73 2.79 2.85 2.88 2.85 2.81 2.77 2.72 2.68 2.66 2.56 2.43 2.54 2.55 2.74 2.74 2.76 2.73 2.80 2.83 2.85 2.79 2.57 2.44 2.18 2.08 2.01 1.78 1.84 1.97 2.13 2.25 2.47
1.96 2.13 2.28 2.44 2.50 2.62 2.67 2.72 2.71 2.66 2.65 2.67 2.68 2.68 2.67 2.68 2.58 2.51 2.46 2.47 2.37 2.33 2.40 2.48 2.58 2.53 2.56 2.69 2.71 2.72 2.82 2.79 2.80 2.81 2.41 2.24 2.09 1.67 1.65 1.65 1.82 2.00 2.33

GEFSSE_prec_meanprecacc_264.txt.gz
Total_Precipitation_Accumulation
2.09 2.22 2.39 1.77 1.44 1.29 1.24 1.27 1.23 1.10 1.07 1.13 1.16 1.17 1.18 1.25 1.31 1.42 1.49 1.53 1.68 1.85 1.99 2.22 2.41 2.50 2.48 2.30 2.13 1.96 1.78 1.73 1.75 1.78 1.80 1.79 1.78 2.01 2.29 2.40 2.24 1.57 1.67
1.68 1.88 2.02 1.62 1.32 1.15 1.14 1.27 1.19 1.06 1.00 1.04 1.03 1.04 1.11 1.22 1.26 1.33 1.40 1.57 1.75 1.86 1.97 2.13 2.23 2.25 2.09 1.83 1.67 1.58 1.55 1.65 1.80 1.94 1.86 1.73 1.85 1.99 2.24 2.27 2.21 1.55 1.62
1.16 1.42 1.41 1.40 1.22 1.09 1.07 1.13 1.08 1.00 0.94 1.00 1.06 1.12 1.20 1.29 1.27 1.25 1.37 1.56 1.71 1.79 1.87 1.97 2.00 1.93 1.74 1.50 1.39 1.33 1.47 1.70 1.90 2.17 2.24 1.54 1.42 1.92 2.23 2.16 1.80 1.45 1.48
0.85 1.02 1.02 1.10 1.05 0.90 0.78 0.85 0.96 0.91 0.93 1.02 1.14 1.26 1.38 1.53 1.53 1.52 1.55 1.60 1.73 1.76 1.74 1.79 1.76 1.62 1.48 1.33 1.22 1.27 1.40 1.66 1.92 2.38 2.22 1.43 1.10 1.59 1.98 1.75 1.55 1.46 1.43
0.74 0.82 0.94 0.86 0.78 0.76 0.71 0.72 0.85 0.95 0.99 1.00 1.11 1.25 1.43 1.70 1.75 1.79 1.82 1.86 1.86 1.74 1.63 1.60 1.55 1.39 1.25 1.15 1.13 1.21 1.33 1.62 1.96 2.04 1.68 1.52 1.45 1.56 1.62 1.56 1.55 1.53 1.48
0.63 0.67 0.69 0.77 0.73 0.71 0.73 0.73 0.78 0.89 0.98 1.03 1.11 1.27 1.45 1.73 1.91 2.00 1.93 1.92 1.84 1.63 1.51 1.43 1.37 1.20 1.08 1.03 1.12 1.18 1.32 1.71 1.70 1.24 1.23 1.25 1.32 1.58 1.55 1.71 1.74 1.67 1.60
0.56 0.63 0.66 0.71 0.72 0.71 0.69 0.76 0.82 0.83 0.97 1.02 1.03 1.17 1.37 1.59 1.89 1.95 1.85 1.76 1.60 1.49 1.43 1.37 1.29 1.13 1.09 1.07 1.16 1.16 1.35 1.64 1.31 0.94 1.18 1.38 1.25 1.32 1.51 1.77 1.90 1.82 1.60
0.64 0.55 0.65 0.74 0.74 0.68 0.64 0.72 0.77 0.82 0.91 1.01 1.02 1.09 1.26 1.46 1.65 1.68 1.59 1.48 1.37 1.39 1.38 1.34 1.27 1.17 1.07 1.09 1.13 1.16 1.35 1.33 1.01 0.92 1.00 1.08 1.04 1.16 1.42 1.63 1.76 1.79 1.59
0.86 0.72 0.69 0.65 0.61 0.62 0.67 0.69 0.76 0.88 1.03 1.10 1.10 1.17 1.36 1.43 1.47 1.39 1.39 1.35 1.32 1.33 1.36 1.27 1.15 1.04 0.96 1.01 1.05 1.13 1.30 1.36 1.13 1.12 0.89 0.91 1.12 1.29 1.49 1.64 1.64 1.58 1.51
1.15 0.98 0.83 0.77 0.76 0.66 0.65 0.76 0.83 0.95 1.13 1.23 1.25 1.35 1.53 1.53 1.45 1.43 1.36 1.34 1.36 1.42 1.41 1.29 1.08 0.94 0.89 0.97 1.00 1.09 1.26 1.10 0.96 0.97 0.93 0.88 1.20 1.41 1.56 1.61 1.60 1.49 1.47
1.59 1.25 1.06 0.93 0.95 0.91 0.79 0.81 0.98 1.08 1.22 1.31 1.50 1.65 1.83 1.81 1.60 1.68 1.55 1.63 1.60 1.62 1.59 1.48 1.28 1.14 1.04 1.02 1.21 1.41 1.19 1.01 1.15 1.20 1.11 1.10 1.27 1.49 1.68 1.70 1.70 1.65 1.60
1.78 1.37 1.24 1.06 0.95 0.95 1.05 1.32 1.43 1.25 1.43 1.70 1.96 2.10 2.33 2.23 2.10 1.75 1.91 2.07 2.17 2.31 2.22 2.05 1.93 1.58 1.29 1.19 1.73 1.99 1.24 1.09 1.18 1.33 1.27 1.28 1.50 1.76 1.92 1.84 1.74 1.70 1.62
1.67 1.44 1.36 1.34 1.33 1.20 1.33 1.53 1.66 1.66 1.86 2.02 2.10 2.22 2.38 2.07 1.98 2.00 2.17 2.40 2.52 2.58 2.42 2.46 2.43 2.09 1.96 1.93 2.16 2.11 1.55 1.44 1.39 1.34 1.41 1.51 1.68 1.98 2.30 2.14 1.96 1.88 1.72
2.13 1.91 1.74 1.74 1.67 1.57 1.54 1.70 1.82 1.83 1.90 2.05 2.18 2.12 2.21 2.34 2.39 2.47 2.68 2.58 2.66 2.77 3.05 2.69 2.83 2.68 2.48 2.36 2.34 2.21 1.87 1.84 1.84 1.84 2.02 1.82 1.76 2.10 2.52 2.46 2.26 2.06 1.88
2.67 2.64 2.37 2.10 1.95 1.91 2.04 2.04 1.95 2.03 2.13 2.22 2.39 2.32 2.29 2.52 2.65 2.71 2.71 2.77 2.54 2.63 2.99 3.09 2.87 3.07 3.12 2.91 2.67 2.42 2.34 2.15 2.04 2.07 2.16 2.09 2.06 2.18 2.50 2.71 2.58 2.44 2.19
2.87 2.95 2.73 2.55 2.40 2.37 2.53 2.61 2.51 2.33 2.51 2.58 2.55 2.40 2.45 2.67 2.97 3.09 2.96 3.01 2.79 2.67 2.86 3.00 3.00 3.59 3.46 3.31 2.83 2.54 2.49 2.42 2.24 2.27 2.34 2.42 2.18 2.05 2.24 2.70 2.88 2.79 2.62
3.23 3.13 3.08 3.04 2.94 2.98 2.97 2.93 2.73 2.68 2.58 2.67 2.75 2.75 2.73 2.74 3.06 3.19 3.25 3.19 3.00 2.85 3.01 3.04 3.25 3.49 3.26 3.12 2.83 2.63 2.53 2.47 2.27 2.27 2.50 2.72 2.44 2.26 2.23 2.43 2.76 2.95 3.02
3.59 3.57 3.55 3.39 3.42 3.45 3.43 3.33 3.14 3.02 2.88 2.72 2.68 2.80 2.84 2.92 3.13 3.32 3.17 3.05 3.15 3.16 3.30 3.50 3.56 3.56 3.45 3.31 3.08 2.72 2.53 2.56 2.10 2.05 2.17 2.34 2.51 2.28 2.42 2.65 2.86 2.91 3.17
4.10 4.27 4.29 4.21 3.99 3.78 3.71 3.70 3.73 3.70 3.46 3.15 3.00 2.99 3.01 2.88 3.01 3.26 3.20 3.24 3.27 3.32 3.37 3.10 3.56 3.55 3.59 3.42 2.83 2.63 2.35 2.33 2.20 1.94 1.98 1.95 2.10 2.14 2.19 2.34 2.59 2.67 3.13
4.40 4.91 4.88 4.70 4.58 4.50 4.39 4.16 4.16 3.92 3.64 3.53 3.43 3.52 3.34 3.18 3.13 3.35 3.30 3.36 3.38 3.47 3.48 3.45 3.69 3.62 3.44 3.35 2.64 2.46 2.24 1.91 1.92 1.90 1.75 1.76 1.85 1.77 1.91 2.18 2.48 2.19 2.57
4.69 5.15 5.38 5.39 5.21 4.91 4.51 4.13 3.97 3.89 3.85 3.71 3.57 3.39 3.27 3.20 3.28 3.60 3.45 3.70 3.61 3.39 3.33 3.41 3.64 3.50 3.23 3.26 3.23 2.70 2.11 1.76 1.79 1.65 1.73 1.91 1.81 1.82 2.04 2.36 2.49 2.35 2.12
4.28 4.71 4.87 4.64 4.53 4.36 4.11 4.01 4.00 4.20 3.92 3.70 3.59 3.42 3.15 3.10 3.21 3.24 3.52 3.42 3.41 3.49 3.38 3.38 3.59 3.40 2.97 3.09 3.33 3.25 2.53 2.28 1.81 1.37 1.64 1.80 1.87 2.09 2.17 2.17 2.50 2.68 2.45
3.24 3.50 3.66 3.83 3.78 3.67 3.65 3.63 3.66 3.90 3.72 3.56 3.46 3.38 3.01 2.84 2.81 2.93 3.03 3.11 3.43 3.35 3.38 3.43 3.37 3.27 2.97 2.89 3.00 3.26 2.82 2.41 1.95 1.44 1.39 1.67 2.02 2.19 2.16 2.26 2.34 2.56 2.66
2.86 3.04 3.10 3.14 3.27 3.32 3.39 3.30 3.14 3.07 3.04 3.01 3.10 3.05 2.98 2.83 2.72 2.74 2.79 2.85 2.94 2.86 2.99 2.74 2.87 3.10 3.20 2.92 2.96 2.88 2.77 2.62 2.46 1.99 1.65 1.66 1.92 2.07 2.23 2.20 2.28 2.41 2.70
2.27 2.50 2.64 2.76 2.87 2.99 3.05 2.99 2.97 2.78 2.78 2.84 2.90 2.93 2.89 2.84 2.81 2.77 2.76 2.75 2.65 2.51 2.61 2.62 2.81 2.82 2.83 2.81 2.87 2.92 2.94 2.85 2.63 2.51 2.25 2.14 2.05 1.82 1.87 2.00 2.17 2.29 2.51
2.02 2.20 2.32 2.47 2.52 2.64 2.69 2.75 2.75 2.71 2.70 2.71 2.72 2.73 2.73 2.73 2.64 2.59 2.54 2.56 2.48 2.45 2.50 2.57 2.67 2.60 2.62 2.76 2.79 2.80 2.90 2.87 2.87 2.90 2.48 2.30 2.13 1.71 1.67 1.66 1.84 2.02 2.36

GEFSSE_prec_meanprecacc_270.txt.gz
Total_Precipitation_Accumulation
2.22 2.33 2.48 1.86 1.53 1.40 1.34 1.37 1.34 1.20 1.15 1.21 1.23 1.24 1.25 1.34 1.41 1.52 1.58 1.63 1.79 2.02 2.21 2.45 2.65 2.70 2.70 2.57 2.36 2.17 1.98 1.95 1.98 2.00 1.97 1.92 1.88 2.09 2.37 2.48 2.34 1.65 1.74
1.78 1.95 2.08 1.69 1.39 1.24 1.24 1.37 1.30 1.15 1.06 1.10 1.09 1.11 1.19 1.32 1.38 1.45 1.50 1.68 1.87 2.03 2.17 2.35 2.44 2.46 2.35 2.14 1.95 1.81 1.76 1.87 2.01 2.12 2.03 1.89 1.97 2.07 2.31 2.33 2.30 1.64 1.69
1.26 1.50 1.47 1.46 1.28 1.17 1.18 1.23 1.17 1.06 0.99 1.07 1.12 1.19 1.29 1.41 1.40 1.36 1.48 1.69 1.86 1.97 2.09 2.23 2.25 2.24 2.07 1.82 1.68 1.58 1.71 1.92 2.09 2.37 2.43 1.68 1.57 2.01 2.29 2.22 1.86 1.52 1.55
0.92 1.11 1.09 1.17 1.14 1.02 0.90 0.95 1.04 0.97 0.98 1.08 1.21 1.34 1.47 1.63 1.64 1.64 1.69 1.77 1.91 1.95 1.98 2.05 2.02 1.92 1.78 1.63 1.52 1.59 1.70 1.90 2.10 2.57 2.39 1.57 1.23 1.68 2.05 1.81 1.60 1.53 1.50
0.81 0.88 0.99 0.91 0.84 0.85 0.81 0.81 0.93 1.00 1.04 1.04 1.16 1.31 1.50 1.79 1.85 1.92 1.97 2.04 2.04 1.91 1.81 1.78 1.75 1.59 1.47 1.42 1.49 1.63 1.68 1.92 2.20 2.25 1.82 1.65 1.58 1.68 1.73 1.66 1.64 1.63 1.56
0.68 0.71 0.73 0.79 0.76 0.78 0.84 0.82 0.85 0.95 1.03 1.07 1.15 1.33 1.51 1.80 2.00 2.15 2.10 2.09 2.03 1.79 1.66 1.57 1.51 1.34 1.25 1.29 1.52 1.61 1.66 1.99 1.97 1.47 1.43 1.44 1.49 1.75 1.72 1.91 1.93 1.84 1.73
0.59 0.66 0.68 0.73 0.75 0.75 0.77 0.85 0.90 0.89 1.03 1.08 1.08 1.23 1.44 1.66 1.99 2.08 2.02 1.93 1.76 1.64 1.56 1.49 1.40 1.25 1.21 1.20 1.39 1.48 1.63 1.85 1.48 1.10 1.36 1.54 1.38 1.45 1.65 1.94 2.05 1.95 1.72
0.67 0.58 0.67 0.76 0.77 0.72 0.68 0.77 0.85 0.91 1.03 1.10 1.10 1.17 1.36 1.55 1.76 1.79 1.73 1.62 1.49 1.51 1.49 1.44 1.36 1.26 1.17 1.19 1.25 1.33 1.53 1.46 1.11 1.03 1.16 1.21 1.15 1.28 1.60 1.87 1.96 1.95 1.72
0.89 0.76 0.74 0.72 0.66 0.65 0.69 0.74 0.87 1.03 1.17 1.22 1.20 1.27 1.48 1.57 1.61 1.49 1.51 1.47 1.43 1.42 1.43 1.34 1.21 1.13 1.04 1.08 1.12 1.22 1.41 1.45 1.20 1.20 1.02 1.09 1.28 1.44 1.69 1.88 1.85 1.77 1.67
1.17 1.03 0.89 0.83 0.80 0.69 0.67 0.80 0.93 1.09 1.28 1.37 1.37 1.49 1.68 1.69 1.58 1.56 1.47 1.46 1.46 1.51 1.48 1.36 1.14 1.03 0.98 1.04 1.07 1.15 1.33 1.16 1.03 1.07 1.10 1.09 1.38 1.56 1.73 1.80 1.77 1.64 1.60
1.62 1.28 1.09 0.96 0.97 0.94 0.81 0.83 1.04 1.19 1.35 1.45 1.66 1.83 2.01 1.98 1.76 1.85 1.67 1.76 1.73 1.74 1.71 1.59 1.38 1.25 1.15 1.11 1.28 1.48 1.25 1.07 1.22 1.31 1.25 1.26 1.41 1.62 1.82 1.84 1.82 1.75 1.70
1.83 1.40 1.26 1.09 1.00 0.98 1.07 1.35 1.51 1.36 1.55 1.85 2.14 2.29 2.52 2.41 2.25 1.86 2.02 2.22 2.35 2.50 2.43 2.26 2.10 1.75 1.41 1.28 1.81 2.06 1.30 1.15 1.26 1.41 1.37 1.37 1.58 1.84 2.01 1.92 1.82 1.78 1.70
1.70 1.47 1.38 1.38 1.36 1.22 1.34 1.57 1.74 1.76 1.96 2.14 2.23 2.37 2.54 2.23 2.12 2.12 2.29 2.55 2.72 2.82 2.68 2.68 2.64 2.24 2.05 2.02 2.25 2.19 1.61 1.51 1.46 1.43 1.50 1.60 1.76 2.04 2.35 2.20 2.03 1.96 1.80
2.16 1.92 1.75 1.77 1.70 1.60 1.56 1.75 1.88 1.89 1.99 2.16 2.30 2.25 2.34 2.45 2.49 2.57 2.79 2.74 2.87 2.99 3.25 2.90 3.01 2.80 2.55 2.41 2.41 2.29 1.92 1.89 1.89 1.89 2.08 1.87 1.82 2.16 2.58 2.53 2.32 2.12 1.93
2.70 2.66 2.38 2.12 1.97 1.94 2.07 2.09 1.99 2.07 2.18 2.30 2.48 2.43 2.38 2.61 2.74 2.80 2.81 2.94 2.73 2.78 3.12 3.23 3.01 3.19 3.20 2.96 2.72 2.47 2.38 2.18 2.08 2.10 2.20 2.14 2.09 2.21 2.54 2.76 2.64 2.51 2.27
2.90 2.97 2.75 2.58 2.44 2.42 2.58 2.66 2.55 2.36 2.56 2.63 2.62 2.49 2.53 2.76 3.07 3.20 3.08 3.14 2.95 2.79 2.95 3.08 3.09 3.68 3.55 3.38 2.88 2.58 2.53 2.47 2.27 2.30 2.38 2.46 2.21 2.08 2.26 2.74 2.94 2.86 2.69
3.25 3.16 3.10 3.06 2.98 3.01 3.01 2.97 2.78 2.71 2.62 2.71 2.79 2.82 2.80 2.82 3.15 3.28 3.37 3.31 3.12 2.94 3.07 3.10 3.31 3.56 3.33 3.18 2.89 2.68 2.58 2.52 2.32 2.30 2.56 2.78 2.48 2.30 2.27 2.47 2.82 3.02 3.10
3.61 3.59 3.58 3.41 3.45 3.50 3.49 3.39 3.19 3.07 2.92 2.76 2.73 2.87 2.90 2.97 3.20 3.39 3.26 3.14 3.23 3.22 3.36 3.55 3.62 3.63 3.53 3.39 3.15 2.77 2.58 2.61 2.16 2.09 2.23 2.41 2.57 2.33 2.46 2.68 2.90 2.97 3.24
4.12 4.29 4.31 4.23 4.02 3.81 3.77 3.75 3.78 3.76 3.52 3.20 3.06 3.07 3.07 2.93 3.04 3.31 3.27 3.31 3.35 3.38 3.42 3.15 3.62 3.62 3.67 3.50 2.88 2.67 2.38 2.36 2.24 1.96 2.00 1.98 2.15 2.20 2.24 2.37 2.62 2.70 3.18
4.42 4.92 4.90 4.71 4.60 4.53 4.44 4.21 4.22 4.00 3.71 3.59 3.50 3.60 3.40 3.22 3.15 3.39 3.35 3.43 3.43 3.51 3.53 3.50 3.76 3.67 3.49 3.41 2.68 2.50 2.27 1.94 1.94 1.93 1.79 1.81 1.91 1.82 1.97 2.24 2.53 2.22 2.61
4.71 5.17 5.41 5.42 5.23 4.95 4.58 4.21 4.05 3.97 3.92 3.77 3.63 3.43 3.30 3.22 3.29 3.62 3.48 3.76 3.66 3.45 3.38 3.45 3.71 3.56 3.28 3.32 3.30 2.77 2.16 1.79 1.82 1.69 1.77 1.96 1.86 1.87 2.09 2.41 2.54 2.40 2.16
4.30 4.73 4.89 4.66 4.56 4.40 4.18 4.09 4.06 4.25 3.97 3.74 3.64 3.46 3.17 3.11 3.22 3.26 3.55 3.45 3.46 3.55 3.43 3.42 3.66 3.47 3.04 3.15 3.41 3.35 2.62 2.35 1.87 1.42 1.68 1.83 1.90 2.14 2.22 2.23 2.57 2.74 2.50
3.27 3.52 3.68 3.85 3.80 3.69 3.69 3.67 3.70 3.94 3.76 3.60 3.51 3.42 3.04 2.86 2.83 2.95 3.05 3.14 3.47 3.39 3.44 3.50 3.43 3.35 3.06 2.96 3.08 3.36 2.93 2.53 2.04 1.51 1.43 1.71 2.07 2.25 2.21 2.31 2.40 2.62 2.71
2.91 3.08 3.12 3.15 3.29 3.33 3.42 3.34 3.17 3.11 3.08 3.05 3.14 3.09 3.01 2.84 2.73 2.75 2.81 2.87 2.98 2.90 3.05 2.80 2.94 3.18 3.29 2.99 3.05 2.96 2.85 2.74 2.59 2.08 1.71 1.71 1.98 2.12 2.29 2.24 2.34 2.49 2.76
2.31 2.54 2.67 2.77 2.87 3.00 3.06 3.02 3.00 2.80 2.80 2.86 2.93 2.95 2.91 2.86 2.81 2.78 2.77 2.78 2.69 2.55 2.67 2.68 2.89 2.89 2.90 2.87 2.93 2.99 3.04 2.96 2.74 2.62 2.34 2.20 2.10 1.85 1.91 2.04 2.23 2.37 2.61
2.05 2.23 2.35 2.47 2.53 2.64 2.69 2.77 2.77 2.72 2.71 2.73 2.74 2.75 2.75 2.76 2.66 2.61 2.58 2.61 2.53 2.49 2.55 2.63 2.74 2.66 2.68 2.82 2.85 2.86 2.98 2.95 2.97 3.01 2.57 2.37 2.19 1.76 1.72 1.71 1.89 2.09 2.43